Overview Statistics Trail Chart Weather Telemetry Raw packets
 

This is the latest recevied weather packets stored in our database for station/object KG7FOQ-13. If no packets are shown the sender has not sent any weather packets the latest 10 day(s).

<< 21 22 23 24 25 26 27 >>
Time Temp. Humidity Pressure Rain* Wind** Luminosity Snow
1788461087 20° C 35% 1013.3 hPa 0 mm - - -
1788460785 20.56° C 32% 1013.5 hPa 0 mm - - -
1788460485 21.11° C 31% 1013.5 hPa 0 mm - - -
1788460184 20.56° C 36% 1013.5 hPa 0 mm - - -
1788459884 20.56° C 38% 1013.7 hPa 0 mm - - -
1788459583 21.11° C 34% 1013.8 hPa 0 mm - - -
1788459283 20.56° C 32% 1013.8 hPa 0 mm - - -
1788458982 20.56° C 33% 1013.8 hPa 0 mm - - -
1788458682 20.56° C 36% 1014 hPa 0 mm - - -
1788458381 20° C 38% 1014 hPa 0 mm - - -
1788458081 19.44° C 39% 1014.1 hPa 0 mm - - -
1788457780 19.44° C 39% 1014.1 hPa 0 mm - - -
1788457480 19.44° C 42% 1014.2 hPa 0 mm - - -
1788457179 18.89° C 43% 1014.2 hPa 0 mm - - -
1788456879 18.33° C 45% 1014.3 hPa 0 mm - - -
1788456578 18.33° C 47% 1014.3 hPa 0 mm - - -
1788456277 17.78° C 45% 1014.3 hPa 0 mm - - -
1788455977 17.22° C 47% 1014.4 hPa 0 mm - - -
1788455676 17.78° C 48% 1014.3 hPa 0 mm - - -
1788455376 17.22° C 48% 1014.4 hPa 0 mm - - -
1788455075 17.22° C 53% 1014.5 hPa 0 mm - - -
1788454775 16.67° C 49% 1014.5 hPa 0 mm - - -
1788454473 16.67° C 47% 1014.5 hPa 0 mm - - -
1788454173 17.22° C 51% 1014.5 hPa 0 mm - - -
1788453872 17.22° C 48% 1014.7 hPa 0 mm - - -

* Rain latest hour (hover to see other rain measurements)
** Current wind speed in m/s (hover to see current wind gust speed)